User: anonymous   Login
Location: Brachbach
(49.1847°N, 9.7240°E)
Time: 15:43:39
(UTC+00:00)
Language:

YAOGAN 29 DEB - Orbit

View from above orbital plane
View from above orbital plane
View from above satellite
View from above satellite

Ground track
Ground track

The orbit data is extracted from the following two-line orbital elements,

1 42673U 15069F   24277.81756611  .00007325  00000-0  79151-3 0  9993
2 42673  97.9458 301.9047 0001935 246.5019 113.5994 14.88622873479444
Epoch (UTC): 03 October 2024 19:37:17
Eccentricity: 0.0001935
inclination: 97.9458°
perigee height: 601 km
apogee height: 603 km
right ascension of ascending node: 301.9047°
argument of perigee: 246.5019°
revolutions per day: 14.88622873
mean anomaly at epoch: 113.5994°
orbit number at epoch: 47944

The dashed part of the orbit path shows where the satellite is in the earth's shadow,  

DLR